Home   Weather   Woodbridge   Past weeks
Flag for South Africa

Past Weather in Woodbridge, South Africa — Yesterday and Last 2 Weeks

Now
64 °F

Sunny.


Feels Like: 64 °F
Forecast: 67 / 26 °F
Wind: 3 mph from Northwest

Location: Bloemfontein Airport

Current Time: Jul 4, 2020 at 6:24:40 pm

Latest Report: Jul 4, 2020 at 5:00 pm


Visibility: 10 mi

Pressure: 30.33 "Hg

Humidity: 14%

Dew Point: 14 °F

Location of WoodbridgeLocation

Past Weather in Woodbridge — Graph

°F

Woodbridge Temperature Yesterday

Maximum temperature yesterday: 68 °F (at 2:00 pm)
Minimum temperature yesterday: 27 °F (at 5:00 am)
Average temperature yesterday: 44 °F

High & Low Weather Summary for the Past Weeks

 TemperatureHumidityPressure
High68 °F (Jul 3, 2:00 pm)100% (Jun 29, 3:00 am)30.48 "Hg (Jun 29, 3:00 am)
Low21 °F (Jun 29, 7:00 am)12% (Jul 3, 4:00 pm)30.07 "Hg (Jun 26, 2:00 pm)
Average43 °F60%30.32 "Hg
* Reported Jun 19 5:00 pm — Jul 4 5:00 pm, Woodbridge. Weather by CustomWeather, © 2020

Note: Actual official high and low records may vary slightly from our data, if they occured in-between our weather recording intervals... More about our weather records

Woodbridge Weather History for the Previous 24 Hours

Scroll right to see more
 ConditionsComfort  
Time TempWeatherWind HumidityBarometerVisibility
5:00 pm
Sat, Jul 4
64 °FSunny.3 mph14%30.33 "Hg10 mi
4:00 pm66 °FSunny.9 mph15%30.33 "Hg10 mi
3:00 pm68 °FPassing clouds.9 mph14%30.33 "HgN/A
2:00 pm66 °FSunny.6 mph13%30.36 "Hg10 mi
1:00 pm66 °FPassing clouds.7 mph17%30.39 "HgN/A
12:00 pm64 °FPassing clouds.6 mph16%30.42 "HgN/A
11:16 am61 °FSunny.2 mph22%30.42 "Hg10 mi
11:00 am57 °FSunny.2 mph23%30.42 "Hg10 mi
10:12 am54 °FSunny.1 mph26%30.45 "Hg10 mi
10:00 am50 °FSunny.1 mph32%30.45 "Hg10 mi
9:00 am43 °FSunny.No wind42%30.42 "Hg10 mi
8:40 am39 °FSunny.No wind48%30.42 "Hg10 mi
8:18 am34 °FSunny.1 mph65%30.42 "Hg10 mi
8:05 am30 °FSunny.2 mph75%30.42 "Hg10 mi
8:00 am27 °FSunny.No wind80%30.42 "Hg10 mi
7:00 am23 °FClear.1 mph86%30.39 "Hg10 mi
6:00 am23 °FClear.2 mph80%30.39 "Hg10 mi
5:00 am25 °FClear.3 mph86%30.39 "Hg5 mi
4:00 am25 °FCold.2 mph80%30.39 "HgN/A
3:00 am27 °FChilly.1 mph74%30.39 "Hg6 mi
2:00 am27 °FChilly.2 mph80%30.39 "Hg6 mi
1:00 am28 °FChilly.2 mph74%30.39 "HgN/A
12:00 am30 °FChilly.2 mph69%30.39 "Hg6 mi
11:00 pm
Fri, Jul 3
32 °FChilly.3 mph60%30.39 "HgN/A
10:32 pm37 °FChilly.3 mph52%30.39 "Hg4 mi
10:00 pm34 °FChilly.5 mph60%30.39 "Hg4 mi
9:00 pm39 °FChilly.5 mph52%30.39 "Hg5 mi
8:00 pm43 °FClear.5 mph42%30.39 "Hg10 mi
6:00 pm52 °FClear.3 mph28%30.36 "Hg10 mi
Weather by CustomWeather, © 2020

See weather overview